User: anonymous   Login
Location: Unspecified
(0.0000°N, 0.0000°E)
Time: 06:26:37
(UTC+00:00)
Language:

Oscar 2 - Orbit

View from above orbital plane
View from above orbital plane
View from above satellite
View from above satellite

Ground track
Ground track

The orbit data is extracted from the following two-line orbital elements,

1 00305U 62022  B 62169.78192530  .02385371 +00000-0 +00000-0 0  9998
2 00305 074.2700 290.4607 0138170 091.8937 147.4274 16.27003507002704
Epoch (UTC): 18 June 1962 18:45:58
Eccentricity: 0.0138170
inclination: 74.2700°
perigee height: 110 km
apogee height: 291 km
right ascension of ascending node: 290.4607°
argument of perigee: 91.8937°
revolutions per day: 16.27003507
mean anomaly at epoch: 147.4274°
orbit number at epoch: 270

The dashed part of the orbit path shows where the satellite is in the earth's shadow,  

DLR